Lapse_Rate
6.5 6.6 6.7 6.9 6.9 6.9 6.8 6.6 6.6 6.5 6.5 6.2 6.1 6.1 5.9 5.8 5.9 6.1 6.1 6.3 6.3 6.4 6.3 6.3 6.2 6.3 6.5 6.5 6.7 6.8 6.9 6.6 6.5 6.6 6.8 6.8 6.7 6.6 6.6 6.7 6.6 6.8 7.0 6.7 6.6
6.6 6.5 6.9 7.0 7.0 6.9 6.8 6.7 6.6 6.5 6.4 6.3 6.2 6.2 6.1 6.0 6.2 6.2 6.3 6.3 6.1 6.1 6.2 6.4 6.4 6.6 6.5 6.4 6.6 6.8 6.8 6.8 6.7 6.8 6.7 6.9 6.9 6.8 6.6 6.5 6.7 6.8 7.2 7.1 6.4
6.6 6.6 7.0 7.1 7.1 7.0 6.9 6.8 6.7 6.6 6.4 6.4 6.4 6.4 6.3 6.2 6.2 6.2 6.2 6.0 5.9 6.0 6.1 6.3 6.4 6.5 6.4 6.4 6.6 6.7 6.6 6.8 6.8 6.8 6.9 6.9 6.7 6.5 6.5 6.3 6.4 6.4 6.9 6.9 6.7
6.5 6.6 7.0 7.2 7.2 7.0 7.0 6.8 6.8 6.7 6.6 6.5 6.4 6.4 6.3 6.3 6.1 6.1 6.0 6.0 6.0 6.0 6.2 6.4 6.6 6.7 6.7 6.6 6.5 6.7 7.0 6.8 6.5 6.7 6.8 6.8 6.6 6.4 6.4 6.2 6.3 6.5 6.2 6.5 6.5
6.4 6.6 7.1 7.3 7.3 7.2 7.1 6.9 6.8 6.8 6.7 6.5 6.5 6.5 6.3 6.3 6.1 5.9 6.0 6.0 5.8 5.9 6.2 6.5 6.6 6.8 6.8 6.8 6.7 6.8 6.9 6.9 6.7 6.8 6.7 6.5 6.2 6.1 6.3 6.2 5.9 6.2 6.2 5.9 6.2
6.4 6.6 7.0 7.3 7.4 7.4 7.3 7.0 6.7 6.8 6.6 6.5 6.4 6.4 6.4 6.4 6.2 6.0 6.0 6.0 6.0 6.1 6.2 6.4 6.5 6.8 6.8 6.8 6.9 7.0 6.8 7.1 7.2 7.0 6.8 6.5 6.6 6.4 6.7 6.7 6.1 5.9 6.0 5.9 5.8
6.3 6.5 6.8 7.2 7.4 7.4 7.3 7.2 6.8 6.7 6.7 6.5 6.3 6.2 6.3 6.4 6.3 6.4 6.0 5.8 6.2 6.4 6.6 6.6 6.6 7.0 7.1 7.1 6.8 7.2 6.9 6.8 6.7 6.6 6.7 6.7 6.8 6.5 6.7 6.7 6.5 6.2 5.8 5.8 5.7
6.3 6.4 6.7 6.9 7.2 7.4 7.4 7.2 6.9 6.6 6.6 6.4 6.3 6.3 6.3 6.2 6.2 6.4 6.3 6.0 6.0 6.3 6.6 6.8 6.8 6.9 7.2 7.4 7.2 7.1 7.0 6.7 6.9 6.7 6.5 6.5 6.8 6.7 6.9 6.6 6.6 6.6 6.2 5.7 5.5
6.4 6.4 6.6 6.7 7.0 7.3 7.3 7.2 7.0 6.6 6.4 6.3 6.3 6.4 6.2 6.2 6.4 6.4 6.3 6.1 6.3 6.3 6.7 6.9 7.2 7.3 7.3 7.2 7.3 7.0 6.9 6.6 6.5 6.4 6.4 6.4 6.7 6.9 6.9 6.8 6.7 6.6 6.6 6.0 5.6
6.5 6.5 6.5 6.6 6.8 7.1 7.2 7.2 7.0 6.7 6.4 6.2 6.2 6.2 6.2 6.3 6.2 5.9 6.0 5.9 6.2 6.5 6.8 7.1 7.4 6.8 6.8 6.7 6.5 6.6 7.0 6.9 6.5 6.6 6.3 6.6 7.0 7.0 7.2 7.0 6.8 6.7 6.5 6.4 5.8
6.5 6.5 6.5 6.6 6.8 7.0 7.1 6.9 6.8 6.6 6.4 6.4 6.3 6.4 6.2 6.1 5.9 5.8 5.8 5.9 6.4 6.5 6.9 7.1 6.8 6.8 6.7 6.7 6.8 7.0 7.2 7.3 7.1 7.0 7.1 7.3 7.5 7.0 7.0 6.8 6.7 7.0 6.9 6.7 6.2
6.5 6.5 6.5 6.5 6.8 7.0 7.0 6.8 6.8 6.8 6.5 6.5 6.4 6.1 6.2 6.3 6.2 6.0 6.1 6.2 6.3 6.4 6.7 6.9 7.0 7.3 7.0 7.2 7.4 7.0 7.2 7.2 7.2 7.1 6.7 7.0 7.8 7.4 7.3 7.1 6.7 6.6 6.8 6.9 6.8
6.5 6.5 6.4 6.5 6.8 6.9 6.7 6.7 6.8 6.9 6.7 6.6 6.4 6.3 6.3 6.3 6.2 6.1 6.1 6.4 6.6 6.9 7.1 7.4 7.5 7.4 7.0 7.1 7.8 7.6 7.6 7.5 7.4 7.3 6.7 6.9 7.5 7.8 7.6 7.6 7.4 7.3 6.8 6.6 6.7
6.5 6.4 6.4 6.6 6.6 6.7 6.7 6.8 7.0 7.0 7.0 6.9 6.8 6.7 6.6 6.7 6.4 6.2 6.4 6.7 6.9 7.1 7.3 7.5 7.7 7.7 7.7 7.8 7.8 7.6 7.3 7.4 7.4 7.4 7.2 7.0 7.4 8.0 7.9 7.9 7.7 7.4 7.3 7.2 6.9
6.5 6.4 6.4 6.5 6.6 6.6 6.8 6.9 7.1 7.1 7.3 6.9 6.8 6.5 6.5 6.6 6.6 6.5 6.4 6.5 6.7 6.9 7.2 7.5 7.5 7.6 7.7 7.7 7.7 7.3 7.1 7.1 7.2 7.1 7.0 6.7 6.8 8.3 8.4 7.8 7.7 7.9 7.7 7.4 7.0
6.5 6.5 6.3 6.3 6.5 6.5 6.7 6.9 7.1 7.1 7.0 6.8 6.7 6.6 6.7 6.8 6.7 6.6 6.4 6.5 6.8 7.1 7.2 7.2 7.5 7.6 7.7 7.8 7.7 7.5 7.2 7.2 7.1 6.7 6.9 7.3 6.7 8.4 8.4 8.3 8.2 7.9 7.7 7.6 7.1
6.5 6.4 6.2 6.2 6.4 6.6 6.8 6.9 7.0 7.1 6.8 6.9 6.8 6.7 6.6 6.6 6.6 6.6 6.6 6.7 6.9 7.1 7.5 7.6 7.7 8.0 8.1 8.0 7.8 7.5 7.3 7.6 7.6 7.3 8.3 7.2 6.9 8.9 8.7 8.8 8.5 8.2 7.9 7.8 7.5
6.5 6.3 6.2 6.2 6.3 6.5 6.7 6.9 7.0 7.0 6.9 7.0 6.9 6.8 6.9 6.9 6.9 6.9 7.0 7.1 7.2 7.2 7.3 7.3 8.1 7.9 8.0 7.7 7.6 7.5 7.4 7.9 8.0 8.9 8.9 7.7 7.9 8.9 9.1 9.0 8.9 8.8 8.5 8.4 8.3
6.5 6.3 6.3 6.3 6.2 6.5 6.8 7.0 7.2 7.3 7.4 7.4 7.3 7.2 7.2 7.2 7.3 7.4 7.8 7.9 7.8 7.9 7.6 7.6 7.9 7.9 7.6 7.7 7.4 7.5 7.7 7.8 7.8 7.7 7.7 8.2 8.5 8.9 8.8 8.8 9.0 8.8 8.8 8.6 8.5
6.5 6.3 6.3 6.2 6.4 6.6 6.7 6.9 7.1 7.2 7.3 7.4 7.5 7.5 7.6 7.6 7.5 7.7 8.0 8.1 8.1 8.1 7.9 8.0 7.5 7.9 7.5 7.5 7.6 7.3 7.8 8.1 8.0 8.5 8.5 8.8 8.4 8.8 8.9 8.7 8.8 8.8 8.7 8.8 8.6
6.4 6.4 6.3 6.4 6.7 6.6 6.8 7.1 7.3 7.4 7.4 7.3 7.4 7.4 7.4 7.4 7.4 7.5 7.7 7.8 7.8 7.6 7.5 7.5 7.1 7.4 7.3 7.3 7.5 7.7 8.1 8.3 8.2 8.0 8.7 8.7 8.6 8.3 8.6 8.5 8.7 8.9 8.7 8.7 8.5
6.4 6.4 6.5 6.6 6.5 6.6 6.9 7.2 7.2 7.1 7.2 7.3 7.3 7.5 7.4 7.3 7.2 7.2 7.3 7.3 7.3 7.3 7.3 7.4 7.0 7.2 7.4 7.5 7.6 7.8 7.9 7.8 8.0 8.0 7.3 7.2 7.1 8.2 8.2 8.3 8.3 8.8 8.7 8.5 8.5
6.4 6.5 6.5 6.7 6.5 6.8 7.1 7.2 7.1 7.1 7.2 7.1 7.1 7.1 7.1 7.1 7.2 7.2 7.1 7.2 7.2 7.2 7.2 7.2 7.1 7.4 7.2 7.5 7.5 7.3 7.5 7.5 7.3 7.3 7.4 7.5 7.8 7.7 7.9 8.0 8.3 8.3 8.8 8.6 8.4
6.3 6.4 6.6 6.6 6.8 6.9 6.9 6.9 7.1 7.2 7.2 7.2 7.0 6.9 6.8 6.9 7.1 7.1 7.1 7.0 7.1 7.1 7.1 7.1 7.0 7.2 7.5 7.4 7.4 7.2 7.3 7.2 7.2 7.0 7.2 6.9 7.0 7.5 7.6 7.6 7.8 8.2 8.5 8.8 8.6
6.2 6.5 6.7 6.5 6.5 6.5 6.7 6.7 7.0 7.0 7.0 7.0 6.9 6.8 6.7 6.7 6.8 6.8 6.9 6.8 6.8 6.8 6.9 6.9 6.8 7.0 7.0 7.0 6.9 6.8 6.8 7.0 6.8 7.1 6.8 7.2 6.9 7.5 7.6 7.7 7.7 7.8 8.6 8.9 8.9
6.0 6.1 6.3 6.2 6.3 6.3 6.5 6.5 6.6 6.6 6.6 6.7 6.7 6.8 6.8 6.7 6.7 6.7 6.8 6.7 6.6 6.6 6.6 6.7 6.4 6.6 6.6 6.8 6.7 6.7 7.0 6.9 7.1 7.1 7.1 7.2 7.0 7.2 7.4 7.9 7.9 8.0 8.3 8.7 8.2
6.0 6.0 6.1 6.2 6.1 6.1 6.3 6.4 6.4 6.4 6.4 6.5 6.5 6.6 6.5 6.5 6.5 6.5 6.5 6.4 6.4 6.4 6.4 6.3 6.2 6.2 6.4 6.5 6.5 6.4 6.8 7.0 7.0 7.1 7.2 7.1 7.3 7.2 7.3 7.8 7.9 8.0 8.3 8.2 7.8
Wind_Speed
13 12 12 11 10 11 11 11 11 11 10 11 11 11 11 13 11 1 4 1 4 14 12 6 3 3 1 2 1 1 3 3 2 4 6 11 5 5 3 12 3 2 7 14 18
13 13 12 12 11 10 10 11 11 11 12 13 12 11 11 12 2 5 2 11 17 14 6 4 4 2 1 2 0 3 2 2 1 2 5 14 10 10 7 9 4 9 14 19 17
14 14 13 13 12 11 10 10 10 11 11 12 11 11 11 8 2 1 3 12 13 10 4 2 5 1 2 3 3 2 2 0 2 1 8 13 9 5 11 6 8 17 20 20 18
15 14 14 13 12 12 10 11 10 10 10 11 10 10 11 2 3 0 5 15 16 5 4 4 2 1 2 3 2 1 1 2 3 4 5 9 9 5 11 1 8 19 20 20 19
16 15 14 13 13 12 11 11 10 10 11 10 9 9 2 2 1 3 11 11 8 2 3 3 1 1 3 2 2 2 2 2 1 3 5 9 7 2 8 5 14 18 18 18 17
16 16 15 15 13 12 11 11 10 10 10 9 8 8 2 2 2 9 10 8 6 3 2 2 1 0 2 1 1 4 6 2 2 2 3 7 5 5 6 12 16 19 18 17 16
17 16 15 14 14 12 12 11 12 12 9 7 6 3 1 4 2 10 6 2 3 1 1 2 2 1 1 3 1 2 4 7 8 4 2 7 5 8 9 15 18 19 16 16 16
17 16 15 13 13 13 12 12 13 10 8 6 3 2 1 3 8 7 2 2 1 5 3 6 3 2 1 2 2 1 2 2 5 2 3 8 7 6 14 17 17 18 16 16 17
17 15 14 13 12 12 13 15 12 5 3 2 2 2 3 5 4 7 5 1 3 2 3 3 2 2 1 1 2 4 4 2 2 5 2 4 7 5 13 17 16 17 17 17 17
16 14 13 11 10 11 14 8 1 3 2 2 2 2 1 3 5 7 4 3 3 4 2 2 3 2 3 3 1 2 2 2 2 2 3 6 13 5 14 17 19 18 17 17 17
16 13 11 10 8 8 7 2 2 3 2 2 1 1 2 4 7 4 5 4 2 3 1 2 1 3 4 5 6 6 4 4 7 7 5 12 14 12 14 16 17 18 18 19 20
15 12 10 8 6 5 2 2 1 3 2 4 3 4 3 2 5 4 6 3 1 2 2 1 1 7 6 4 4 2 2 3 7 6 5 8 16 10 15 21 21 21 19 20 20
14 11 8 5 3 2 2 2 2 2 1 1 3 3 3 6 4 8 7 3 3 1 1 2 2 5 4 3 6 2 1 1 4 6 2 9 9 5 9 15 17 19 19 19 19
13 9 6 2 2 2 3 1 4 3 1 2 1 3 5 6 4 2 4 2 2 1 2 4 2 2 3 5 1 4 4 5 5 4 4 6 6 5 1 8 17 19 19 20 21
11 7 4 3 1 3 2 7 4 2 3 2 3 4 3 4 8 3 2 2 2 3 3 3 2 3 4 2 2 3 3 4 3 2 7 3 4 5 1 5 10 17 19 21 21
10 5 2 2 2 4 6 3 2 1 3 3 3 4 7 2 3 4 2 6 3 1 0 3 1 4 4 2 1 4 2 4 3 1 2 2 3 8 3 2 4 4 15 17 15
10 6 5 1 1 4 2 2 0 1 2 4 3 5 5 3 4 6 7 7 5 1 1 2 3 2 4 4 1 4 1 3 2 1 2 0 4 11 4 7 7 9 7 12 13
12 10 7 4 3 6 2 0 1 1 2 3 2 5 5 5 2 4 5 6 6 5 2 4 4 7 9 5 1 5 3 3 5 5 6 2 5 4 2 4 4 4 3 3 6
2 2 2 2 4 4 1 1 2 3 1 4 4 4 4 2 3 4 6 5 5 13 7 4 4 2 6 4 4 6 6 1 3 1 4 2 5 10 2 3 1 2 2 3 3
2 2 2 5 3 0 2 2 2 3 1 3 3 1 4 2 4 2 1 2 1 5 5 1 6 2 2 4 3 3 5 3 2 4 7 4 5 6 12 12 8 5 7 5 4
1 3 4 2 2 3 1 2 3 4 4 2 3 4 3 3 2 2 2 1 2 2 5 5 4 1 2 5 4 4 4 2 0 3 6 8 6 2 10 11 13 9 7 5 5
2 2 3 3 1 1 1 2 2 3 3 1 3 3 2 4 4 4 2 3 5 3 4 3 2 4 0 2 3 2 2 2 3 5 3 4 8 3 8 12 10 9 6 5 5
3 2 1 2 2 0 2 2 2 2 3 2 2 3 3 2 1 2 1 1 6 3 4 7 3 3 3 4 3 3 3 3 2 1 9 9 10 3 9 13 11 7 9 10 6
2 3 1 3 1 1 1 2 1 1 2 3 2 2 3 2 1 2 1 0 3 2 3 3 2 5 9 5 1 4 5 6 6 6 14 12 19 15 15 16 16 7 8 9 10
3 2 2 3 2 1 1 1 0 2 2 2 2 1 4 3 2 2 1 2 2 2 1 1 3 3 4 4 4 7 9 10 10 15 11 19 17 17 18 15 15 11 5 8 7
2 1 1 2 1 4 1 2 2 2 1 1 4 3 3 3 5 5 4 3 4 2 1 1 3 2 6 8 9 11 13 14 16 16 14 18 15 14 6 10 8 2 3 7 6
2 0 2 1 3 3 3 3 3 2 2 1 3 3 3 1 3 4 4 2 2 3 3 2 3 3 14 4 6 11 15 16 12 8 8 12 13 5 12 9 7 5 6 8 7
Wind_Direction
341 338 333 332 334 334 334 333 332 328 325 328 332 337 332 332 317 228 244 191 131 159 132 143 206 164 207 88 77 181 65 81 93 187 120 152 142 150 97 141 138 68 151 139 150
344 338 332 332 332 335 333 332 327 328 327 332 331 334 331 337 279 254 243 129 140 158 125 156 160 159 64 21 355 61 92 84 90 241 160 163 160 152 144 157 132 105 120 137 154
344 337 334 330 330 333 330 328 324 325 327 326 325 330 326 320 235 250 8 154 169 175 150 174 137 252 59 5 0 94 89 342 169 150 149 157 160 149 154 198 190 162 152 155 163
342 338 332 330 328 328 327 325 324 325 322 321 322 322 320 250 105 135 151 162 168 169 152 160 174 119 72 56 336 6 259 263 80 111 121 157 151 151 171 311 177 162 160 162 172
340 338 331 329 325 324 325 321 318 321 318 317 317 324 269 205 334 21 136 129 145 173 200 183 109 71 84 123 167 268 349 238 325 88 76 146 165 141 196 120 142 154 162 175 183
340 336 331 325 324 321 321 317 313 312 313 309 310 317 265 115 64 135 135 142 144 214 200 191 103 154 98 169 243 344 334 313 38 225 136 163 159 172 172 144 150 165 174 180 190
340 334 330 324 321 320 318 314 311 311 307 299 299 285 235 70 66 146 149 145 162 212 303 317 279 200 214 174 96 349 115 104 39 107 136 168 199 227 166 166 165 176 182 187 197
338 334 329 325 319 318 315 309 305 301 295 283 263 245 230 359 135 145 150 119 251 255 303 338 351 339 28 322 65 68 68 72 2 5 103 200 257 219 174 174 179 183 184 195 202
337 334 328 324 320 317 312 309 298 285 260 234 218 301 133 151 158 167 188 122 169 219 312 245 37 64 261 164 89 12 111 56 160 26 134 220 271 209 180 187 184 190 192 195 205
336 333 328 323 322 317 312 286 55 300 217 215 252 242 204 103 138 150 171 109 144 137 190 22 28 58 45 21 40 62 142 98 260 278 257 251 263 232 193 200 194 196 199 201 205
334 332 328 323 321 324 330 194 183 139 192 245 127 55 62 92 150 136 165 169 111 92 268 28 349 92 116 130 149 145 173 195 231 227 248 248 253 246 201 211 212 205 204 208 209
334 330 326 322 316 317 276 221 54 46 237 227 255 285 244 234 123 117 165 185 167 77 308 240 242 199 202 200 147 154 306 280 287 280 270 310 269 252 207 212 214 213 211 214 216
332 328 325 321 304 242 237 225 4 287 242 160 196 202 185 178 135 162 179 140 78 123 319 252 281 185 235 185 197 169 231 233 297 338 222 312 274 254 236 226 222 227 225 227 224
333 327 322 310 260 152 232 133 320 221 152 128 188 134 145 161 118 123 162 117 86 180 210 275 351 231 232 272 279 35 6 338 314 317 309 359 309 289 241 229 224 229 225 227 224
331 323 308 242 11 193 55 327 131 202 120 128 108 126 151 176 130 138 33 132 189 160 257 28 249 294 301 2 83 48 44 20 348 307 314 8 278 283 254 273 244 238 232 231 232
327 308 203 174 235 267 328 153 216 228 121 135 119 156 152 94 103 116 152 72 82 130 161 272 281 232 249 340 132 106 353 38 53 47 265 302 261 287 316 245 292 305 236 231 228
315 262 189 276 105 340 286 195 220 103 328 153 144 168 158 143 171 176 179 182 212 247 341 287 213 219 214 250 148 198 282 301 254 237 322 29 233 269 246 282 296 293 279 236 228
323 174 223 243 301 352 220 56 91 114 213 78 111 110 187 168 207 175 166 220 221 219 239 289 279 190 174 222 153 176 213 267 294 309 328 158 243 311 40 279 274 290 273 203 200
170 166 221 268 218 186 109 153 199 185 123 157 138 149 180 192 235 210 223 244 217 194 217 211 257 157 194 158 200 143 212 62 259 200 263 297 266 280 281 330 258 235 222 147 181
167 146 29 350 156 140 89 229 224 220 215 193 150 268 193 206 210 200 236 136 338 210 256 257 279 234 119 156 111 258 137 216 188 265 285 282 281 290 323 357 349 271 226 185 150
144 114 12 342 263 54 182 248 277 220 214 195 152 134 187 176 203 192 304 357 26 84 179 169 240 150 194 209 196 154 194 100 202 282 298 300 285 291 300 315 313 300 239 193 160
109 97 20 293 49 16 178 218 327 331 47 204 103 96 129 143 162 191 216 268 350 197 169 171 221 256 48 345 294 280 131 194 270 294 237 285 283 241 274 301 297 298 205 190 167
86 91 60 291 172 27 304 286 287 330 31 23 94 43 54 99 170 198 193 164 358 166 192 178 211 248 188 170 165 228 153 129 123 176 261 286 292 230 291 291 288 265 180 150 158
124 117 38 62 28 95 1 35 134 79 81 55 103 119 111 97 69 196 230 349 12 90 84 155 159 258 274 300 11 224 206 206 241 266 287 269 290 298 295 300 303 267 193 163 157
20 97 354 168 169 131 175 335 128 147 78 45 101 94 156 155 177 213 218 282 207 76 127 260 273 212 248 238 234 263 258 238 229 257 266 291 294 288 299 312 315 323 194 175 156
68 131 89 100 134 162 165 189 182 156 233 150 171 158 182 174 212 216 200 220 256 178 46 25 265 218 260 266 245 259 261 261 259 265 258 271 278 290 307 318 328 335 208 200 188
16 99 295 107 140 181 195 181 183 184 147 125 166 179 227 329 319 301 240 347 317 280 273 249 213 230 274 295 292 268 250 252 263 238 256 276 304 338 316 333 327 289 240 228 209